GW4755 Weather Reports


Display with metric or nautical units.
time (UTC)temp
F
wind
direction
speed
MPH
gust
MPH
rain 1hr
in
rain 24hr
in
rain mn
in
humidity
%
barometer
mb
20260508063004 49 3 0.0 0.0 0.00 0.00 0.00 90 1004.4
20260508061504 49 20 0.0 0.0 0.00 0.00 0.00 90 1004.4
20260508054503 50 15 0.0 0.0 0.00 0.00 0.00 89 1004.4
20260508053004 51 356 0.0 0.0 0.00 0.00 0.00 89 1004.4
20260508051504 51 8 0.0 0.0 0.00 0.00 0.00 88 1004.1
20260508050004 51 343 0.0 0.0 0.00 0.00 0.00 88 1004.4
20260508041503 53 342 0.0 0.0 0.00 0.00 0.00 86 1003.7
20260508040004 53 347 0.0 0.0 0.00 0.00 0.00 86 1003.7
20260508034504 54 354 0.0 0.0 0.00 0.00 0.00 86 1003.4
20260508033004 55 338 0.0 0.0 0.00 0.00 0.00 85 1003.4
20260508032004 55 348 0.0 0.0 0.00 0.00 0.00 84 1003.4
20260508030504 56 329 0.0 0.0 0.00 0.00 0.00 83 1003.0
20260508025003 57 311 0.0 0.0 0.00 0.00 0.00 83 1003.0
20260508023503 58 334 0.0 0.0 0.00 0.00 0.00 84 1003.0
20260508022004 58 316 0.0 0.0 0.00 0.00 0.00 84 1003.0
20260508020503 59 330 0.0 0.0 0.00 0.00 0.00 84 1003.0
20260508015003 59 275 0.0 0.0 0.00 0.00 0.00 83 1003.0
20260508013504 59 298 0.0 0.0 0.00 0.00 0.00 84 1003.0
20260508012003 60 276 0.0 0.0 0.00 0.00 0.00 84 1003.4
20260508005504 59 317 0.0 0.0 0.00 0.00 0.00 85 1003.4
20260508004004 59 308 0.0 0.0 0.00 0.00 0.00 83 1003.4
20260508002504 59 314 0.0 0.0 0.00 0.00 0.00 82 1003.7
20260508001005 59 296 0.0 0.0 0.00 0.00 0.00 80 1003.7
20260508000004 59 302 0.0 0.0 0.00 0.00 0.00 79 1003.7
20260507234503 60 347 0.0 0.0 0.00 0.00 0.00 78 1003.7
20260507233003 60 301 0.0 0.0 0.00 0.00 0.00 78 1003.7
20260507231503 60 303 0.0 0.0 0.00 0.00 0.00 78 1004.1
20260507230005 61 210 0.0 1.0 0.00 0.00 0.00 76 1003.7
20260507224504 63 316 0.0 0.0 0.00 0.00 0.00 75 1004.1
20260507223003 63 75 0.0 0.0 0.00 0.00 0.00 74 1004.4
20260507221503 65 54 0.0 0.0 0.00 0.00 0.00 74 1004.1
20260507213004 68 345 1.0 1.0 0.00 0.00 0.00 70 1004.7
20260507211503 68 33 0.0 0.0 0.00 0.00 0.00 69 1004.7
20260507210005 68 11 0.0 0.0 0.00 0.00 0.00 73 1004.7
20260507204503 68 275 0.0 0.0 0.00 0.00 0.00 72 1004.7
20260507203004 68 268 0.0 0.0 0.00 0.00 0.00 71 1004.7
20260507201503 68 348 0.0 0.0 0.00 0.00 0.00 73 1005.1
20260507200003 66 31 0.0 0.0 0.00 0.00 0.00 76 1005.1
20260507194503 65 24 1.0 2.0 0.00 0.00 0.00 77 1005.1
20260507193004 64 17 0.0 0.0 0.00 0.00 0.00 79 1005.4
20260507192002 63 50 2.0 2.0 0.00 0.00 0.00 81 1005.4
20260507190503 62 87 0.0 0.0 0.00 0.00 0.00 82 1005.8
20260507183504 59 19 0.0 0.0 0.00 0.00 0.00 86 1006.1
20260507182503 58 19 0.0 0.0 0.00 0.00 0.00 88 1006.1
20260507181004 56 353 0.0 0.0 0.00 0.00 0.00 89 1006.1
20260507175503 55 3 0.0 0.0 0.00 0.00 0.00 91 1006.1
20260507174003 55 3 0.0 0.0 0.00 0.00 0.00 92 1006.4
20260507171004 53 270 0.0 0.0 0.00 0.00 0.00 93 1006.4
20260507165504 53 9 0.0 0.0 0.00 0.00 0.00 93 1006.1
20260507164004 52 16 0.0 0.0 0.00 0.00 0.00 93 1006.4
20260507162504 52 21 0.0 0.0 0.00 0.00 0.00 93 1006.4
20260507161004 51 349 0.0 0.0 0.00 0.00 0.00 93 1006.4
20260507155503 51 352 0.0 0.0 0.00 0.00 0.00 93 1006.1
20260507154004 51 7 0.0 0.0 0.00 0.00 0.00 93 1006.1
20260507152503 51 345 0.0 0.0 0.00 0.00 0.00 93 1006.1
20260507151004 51 9 0.0 0.0 0.00 0.00 0.00 93 1006.1
20260507145504 50 337 0.0 0.0 0.00 0.00 0.00 93 1006.1
20260507141004 50 348 0.0 0.0 0.00 0.00 0.00 93 1005.8
20260507135504 50 346 0.0 0.0 0.00 0.00 0.00 93 1005.8
20260507134004 50 6 0.0 0.0 0.00 0.00 0.00 93 1005.4
20260507132503 50 340 0.0 0.0 0.00 0.00 0.00 93 1005.4
20260507131005 50 358 0.0 0.0 0.00 0.00 0.00 93 1005.4
20260507130004 50 359 0.0 0.0 0.00 0.00 0.00 93 1005.4
20260507124504 50 359 0.0 0.0 0.00 0.00 0.00 93 1005.4
20260507123004 50 339 0.0 0.0 0.00 0.00 0.00 93 1005.1
20260507121503 50 26 0.0 0.0 0.00 0.00 0.00 93 1005.1
20260507114504 50 317 0.0 0.0 0.00 0.00 0.00 92 1005.4
20260507113004 50 4 0.0 0.0 0.00 0.00 0.00 92 1005.4
20260507111504 50 20 0.0 0.0 0.00 0.00 0.00 92 1005.4
20260507110004 50 351 0.0 0.0 0.00 0.00 0.00 92 1005.4
20260507103004 50 344 0.0 0.0 0.00 0.00 0.00 92 1005.4
20260507101503 50 38 0.0 0.0 0.00 0.00 0.00 92 1005.4
20260507100005 50 352 0.0 0.0 0.00 0.00 0.00 92 1005.8
20260507094503 50 357 0.0 0.0 0.00 0.00 0.00 92 1005.8
20260507093005 50 319 0.0 0.0 0.00 0.00 0.00 92 1005.8
20260507091504 50 2 0.0 0.0 0.00 0.00 0.00 91 1005.8
20260507090005 50 321 0.0 0.0 0.00 0.00 0.00 91 1005.8
20260507085003 50 339 0.0 0.0 0.00 0.00 0.00 91 1005.8
20260507080504 50 2 0.0 0.0 0.00 0.00 0.00 90 1005.8
20260507074504 50 8 0.0 0.0 0.00 0.00 0.00 90 1005.8
20260507073004 50 348 0.0 0.0 0.00 0.00 0.00 90 1005.8
20260507070009 51 351 0.0 0.0 0.00 0.00 0.00 89 1005.4